Location: Unspecified
(0.0000°N, 0.0000°E)
Time: 13:57:35
(UTC+00:00)

N. Korean satellite - Visible Passes

Search period start: 23 April 2017 00:00
Search period end: 03 May 2017 00:00
Orbit: 462 x 518 km, 97.2° (Epoch: 21 April)

Date Brightness Start Highest point End Pass type
(mag) Time Alt. Az. Time Alt. Az. Time Alt. Az.
24 Apr 9.2 19:20:02 10° SSW 19:22:34 19° WSW 19:25:06 10° NW visible
25 Apr 7.5 18:56:35 10° S 18:59:56 47° W 19:03:15 10° NNW visible
26 Apr 6.4 18:33:51 10° SSE 18:37:16 62° ENE 18:40:40 10° N visible
28 Apr 9.4 19:22:54 10° SW 19:25:14 17° W 19:27:34 10° WNW visible
29 Apr 7.8 18:59:17 10° S 19:02:34 41° W 19:05:50 10° NNW visible
30 Apr 6.4 18:36:26 10° SSE 18:39:53 71° E 18:43:19 10° N visible
02 May 9.5 19:25:40 10° SW 19:27:48 16° W 19:29:56 10° WNW visible
